Vorticity
nan nan nan nan nan nan nan nan nan nan nan nan nan nan nan nan nan nan nan nan nan nan
nan 10 8 8 11 9 8 8 9 10 10 11 12 11 11 10 10 10 10 12 9 nan
nan 8 9 8 7 9 8 8 9 9 10 10 12 13 12 9 10 10 10 10 9 nan
nan 8 8 8 7 8 9 8 9 9 9 9 10 11 13 12 11 9 8 9 11 nan
nan 7 7 7 7 8 9 8 8 9 9 9 9 9 10 11 13 12 11 10 10 nan
nan 7 7 7 8 9 8 9 9 9 8 9 9 9 10 11 12 13 12 11 11 nan
nan 8 9 9 8 8 8 8 8 8 8 9 10 11 9 9 11 12 13 12 11 nan
nan 8 8 8 9 9 9 9 8 8 8 9 11 6 5 8 10 10 11 12 13 nan
nan 9 9 8 9 9 9 8 9 9 9 10 5 -1 7 11 12 9 10 10 11 nan
nan 8 8 9 9 9 9 9 9 10 9 9 5 3 8 12 14 10 9 10 10 nan
nan 8 9 10 9 9 9 9 10 10 10 10 5 5 8 14 16 11 8 11 10 nan
nan 9 9 8 9 10 10 11 11 10 10 8 4 6 9 15 17 11 12 12 12 nan
nan 8 9 9 9 10 10 10 9 9 10 9 8 9 10 15 13 12 12 11 12 nan
nan nan nan nan nan nan nan nan nan nan nan nan nan nan nan nan nan nan nan nan nan nan
CAPE
0 0 0 0 0 0 0 0 0 0 0 0 0 0 0 0 0 0 0 0 0 0
0 0 0 0 0 0 0 0 0 0 0 0 0 0 0 0 0 0 0 0 0 0
0 0 0 0 0 0 0 0 0 0 0 0 0 0 0 0 0 0 0 0 0 0
0 0 0 0 0 0 0 0 0 0 0 0 0 0 0 0 0 0 0 0 0 0
0 0 0 0 0 0 0 0 0 0 0 0 0 0 0 1 1 1 0 0 0 0
0 0 0 0 0 0 0 0 0 0 0 0 0 0 0 1 9 13 13 12 4 0
0 0 0 0 0 0 0 0 0 0 0 0 0 0 0 1 4 10 19 25 15 7
0 0 0 0 0 0 0 0 0 0 0 0 0 0 1 3 5 7 7 11 10 18
0 0 0 0 0 0 0 0 0 0 0 0 0 0 0 3 5 3 3 5 5 13
0 0 0 0 0 0 0 0 0 0 0 0 0 0 2 3 2 4 3 1 4 6
0 0 0 0 0 0 0 0 0 0 0 0 0 1 1 0 1 7 3 1 0 0
0 0 0 0 0 0 0 0 0 0 0 0 0 0 0 1 1 3 4 18 17 14
0 0 0 0 0 0 0 0 0 0 0 0 0 0 5 17 15 10 3 2 2 21
0 0 0 0 0 0 0 0 1 0 0 0 0 4 6 8 10 15 13 3 2 1